Weather History for KMLF - March, 2013

Change the Weather History Date:

Monday, March 25, 2013

  Actual Average Record
Temperature  
Mean Temperature 42 °F -  
Max Temperature 59 °F 58 °F 73 °F (2004)
Min Temperature 24 °F 28 °F 16 °F (1997)
Degree Days  
Heating Degree Days 24    
Moisture  
Dew Point 14 °F    
Average Humidity 35    
Maximum Humidity 58    
Minimum Humidity 8    
Precipitation  
Precipitation 0.00 in - - ()
Sea Level Pressure  
Sea Level Pressure 30.06 in    
Wind  
Wind Speed 3 mph (NNW)    
Max Wind Speed 10 mph    
Max Gust Speed -    
Visibility 10 miles    
Events      
Averages and records for this station are not official NWS values.
T = Trace of Precipitation, MM = Missing Value Source: NWS Daily Summary

Daily Weather History Graph

Daily Weather History Graph

Search for Another Location

Airport or City:

Trip Planner

Search our weather history database for the weather conditions in past years. The results will help you decide how hot, cold, wet, or windy it might be!

Date:

Astronomy

Mar. 25, 2013 Rise Set
Actual Time 7:27 AM MDT 7:49 PM MDT
Civil Twilight 7:00 AM MDT 8:15 PM MDT
Nautical Twilight 6:29 AM MDT 8:46 PM MDT
Astronomical Twilight 5:58 AM MDT 9:18 PM MDT
Moon 6:25 PM MDT (3/25) 6:11 AM MDT (3/25)
Length of Visible Light 13h 14m
Length of Day
12h 21m
Waxing Gibbous, 97% of the Moon is Illuminated
Mar 25
Waxing Gibbous
Mar 27
Full
Apr 2
Last Quarter
Apr 10
New
Apr 18
First Quarter

Hourly Weather History & Observations

Time (MDT) Temp. Windchill Dew Point Humidity Pressure Visibility Wind Dir Wind Speed Gust Speed Precip Events Conditions
12:52 AM 27.0 °F 20.5 °F 10.0 °F 49% 30.13 in 10.0 mi NE 5.8 mph - N/A   Partly Cloudy
1:52 AM 26.1 °F - 10.0 °F 51% 30.13 in 10.0 mi Calm Calm - N/A   Scattered Clouds
2:52 AM 28.9 °F - 10.0 °F 45% 30.11 in 10.0 mi Calm Calm - N/A   Overcast
3:52 AM 24.1 °F 19.7 °F 10.9 °F 57% 30.11 in 10.0 mi SW 3.5 mph - N/A   Mostly Cloudy
4:52 AM 23.0 °F - 10.0 °F 58% 30.11 in 10.0 mi Calm Calm - N/A   Overcast
5:52 AM 25.0 °F 20.7 °F 12.0 °F 58% 30.12 in 10.0 mi North 3.5 mph - N/A   Overcast
6:52 AM 25.0 °F 20.7 °F 12.0 °F 58% 30.14 in 10.0 mi ENE 3.5 mph - N/A   Overcast
7:52 AM 27.0 °F 23.0 °F 12.9 °F 56% 30.16 in 10.0 mi WNW 3.5 mph - N/A   Overcast
8:52 AM 28.9 °F - 14.0 °F 54% 30.19 in 10.0 mi Calm Calm - N/A   Mostly Cloudy
9:52 AM 34.0 °F 31.0 °F 12.9 °F 42% 30.16 in 10.0 mi NE 3.5 mph - N/A   Mostly Cloudy
10:52 AM 39.0 °F 35.7 °F 12.0 °F 33% 30.16 in 10.0 mi NNE 4.6 mph - N/A   Mostly Cloudy
11:52 AM 41.0 °F 38.0 °F 10.9 °F 29% 30.14 in 10.0 mi North 4.6 mph - N/A   Overcast
12:52 PM 45.0 °F - 9.0 °F 23% 30.12 in 10.0 mi Calm Calm - N/A   Overcast
1:52 PM 50.0 °F - 12.0 °F 22% 30.07 in 10.0 mi Calm Calm - N/A   Clear
2:52 PM 54.0 °F - 12.0 °F 19% 30.02 in 10.0 mi WSW 3.5 mph - N/A   Clear
3:52 PM 55.9 °F - 12.0 °F 18% 30.01 in 10.0 mi Variable 4.6 mph - N/A   Clear
4:52 PM 57.9 °F - 12.9 °F 17% 29.98 in 10.0 mi Variable 4.6 mph - N/A   Clear
5:52 PM 59.0 °F - 14.0 °F 17% 29.95 in 10.0 mi SSW 8.1 mph - N/A   Clear
6:52 PM 57.0 °F - 15.1 °F 19% 29.95 in 10.0 mi ESE 4.6 mph - N/A   Clear
7:52 PM 53.1 °F - 16.0 °F 23% 29.95 in 10.0 mi Calm Calm - N/A   Clear
8:52 PM 48.0 °F - 19.0 °F 32% 29.97 in 10.0 mi NNW 10.4 mph - N/A   Clear
9:52 PM 44.1 °F - 19.9 °F 38% 29.99 in 10.0 mi Calm Calm - N/A   Clear
10:52 PM 39.9 °F - 23.0 °F 51% 29.99 in 10.0 mi Calm Calm - N/A   Clear
11:52 PM 39.9 °F 35.1 °F 21.0 °F 47% 29.97 in 10.0 mi West 6.9 mph - N/A   Clear